Tracking 25372 objects as of 23-Jan-2022
HD Live streaming from Space Station
objects crossing your sky now

ECHOSTAR 7

Track ECHOSTAR 7 now!
ECHOSTAR 7 is classified as:


NORAD ID: 27378
Int'l Code: 2002-006A
Perigee: 35,780.2 km
Apogee: 35,796.1 km
Inclination: 0.1 °
Period: 1,435.8 minutes
Semi major axis: 42159 km
RCS: 17.7827 m2 (large)
Launch date: February 21, 2002
Source: United States (US)
Launch site: AIR FORCE EASTERN TEST RANGE (AFETR)

CONUS, Hawaii, Alaska and Puerto Rico; 32 Ku-band transponders
aabbcc
Your satellite tracking list
Your tracking list is empty




NASA's NSSDC Master Catalog

Two Line Element Set (TLE):
1 27378U 02006A   22020.72389959  .00000008  00000-0  00000+0 0  9990
2 27378   0.0535 280.8718 0001893  27.1015 313.9261  1.00291801 72931
Source of the keplerian elements: AFSPC